Home   Weather   Freehold   Past weeks
Flag for USA

Past Weather in Freehold, New Jersey, USA — Yesterday and Last 2 Weeks

Now
34 °F

Light rain. Fog.


Feels Like: 28 °F
Forecast: 40 / 27 °F
Wind: 7 mph from Southwest

Location: Belmar-Farmdale

Current Time: Jan 18, 2020 at 8:59:19 pm

Latest Report: Jan 18, 2020 at 7:56 pm


Visibility: 4 mi

Pressure: 29.97 "Hg

Humidity: 100%

Dew Point: 34 °F

Location of FreeholdLocation

Past Weather in Freehold — Graph

°F

Freehold Temperature Yesterday

Maximum temperature yesterday: 32 °F (at 12:56 am)
Minimum temperature yesterday: 21 °F (at 10:56 pm)
Average temperature yesterday: 27 °F

High & Low Weather Summary for the Past Weeks

 TemperatureHumidityPressure
High67 °F (Jan 11, 12:56 pm)100% (Jan 3, 6:05 pm)30.76 "Hg (Jan 3, 6:05 pm)
Low19 °F (Jan 18, 1:56 am)28% (Jan 9, 2:56 pm)29.54 "Hg (Jan 4, 5:56 pm)
Average42 °F76%30.16 "Hg
* Reported Jan 3 6:05 pm — Jan 18 6:56 pm, Freehold. Weather by CustomWeather, © 2020

Note: Actual official high and low records may vary slightly from our data, if they occured in-between our weather recording intervals... More about our weather records

Freehold Weather History for the Previous 24 Hours

Scroll right to see more
 ConditionsComfort  
Time TempWeatherWind HumidityBarometerVisibility
6:56 pm
Sat, Jan 18
34 °FLight rain. Low clouds.7 mph100%30.02 "Hg8 mi
6:36 pm34 °FLight rain. Mostly cloudy.7 mph100%30.02 "Hg10 mi
6:21 pm34 °FLight snow. Mostly cloudy.14 mph100%30.04 "Hg8 mi
6:03 pm32 °FLight snow. Overcast.8 mph100%30.07 "Hg7 mi
5:39 pm30 °FLight snow. Ice fog.7 mph100%30.11 "Hg1 mi
5:21 pm30 °FLight snow. Ice fog.7 mph100%30.13 "Hg2 mi
4:56 pm28 °FLight snow. Ice fog.3 mph100%30.17 "Hg6 mi
4:05 pm27 °FLight snow. Ice fog.6 mph93%30.18 "Hg3 mi
3:33 pm28 °FLight snow. Overcast.3 mph74%30.24 "Hg2 mi
2:56 pm28 °FCloudy.No wind78%30.27 "Hg10 mi
1:56 pm27 °FMostly cloudy.No wind81%30.32 "Hg10 mi
1:09 pm25 °FLight snow. Ice fog.No wind93%30.37 "Hg4 mi
12:40 pm25 °FLight snow. Ice fog.3 mph86%30.40 "Hg1 mi
12:19 pm23 °FLight snow. Ice fog.9 mph93%30.44 "Hg1 mi
12:09 pm25 °FLight snow. Ice fog.12 mph80%30.45 "Hg1 mi
10:56 am29 °FOvercast.7 mph56%30.50 "Hg10 mi
9:56 am25 °FOvercast.No wind55%30.53 "Hg10 mi
8:56 am23 °FOvercast.3 mph53%30.54 "Hg10 mi
7:56 am21 °FOvercast.5 mph55%30.58 "Hg10 mi
6:56 am21 °FClear.5 mph55%30.62 "Hg10 mi
5:56 am20 °FClear.6 mph55%30.64 "Hg10 mi
4:56 am20 °FClear.7 mph55%30.63 "Hg10 mi
3:56 am19 °FClear.5 mph57%30.63 "Hg10 mi
2:56 am19 °FClear.5 mph57%30.66 "Hg10 mi
1:56 am19 °FClear.No wind57%30.67 "Hg10 mi
12:56 am20 °FClear.6 mph52%30.68 "Hg10 mi
11:56 pm
Fri, Jan 17
21 °FClear.5 mph50%30.68 "Hg10 mi
10:56 pm21 °FClear.7 mph47%30.70 "Hg10 mi
9:56 pm22 °FClear.6 mph46%30.69 "Hg10 mi
8:56 pm23 °FClear.8 mph44%30.68 "Hg10 mi
Weather by CustomWeather, © 2020

See weather overview

Advertising